This is the latest recevied weather packets stored in our database for station/object VK4TOM-13. If no packets are shown the sender has not sent any weather packets the latest 10 day(s).
| Time | Temp. | Humidity | Pressure | Rain* | Wind** | Luminosity | Snow |
|---|---|---|---|---|---|---|---|
| 1778005046 | 21.11° C | 70% | 1015.2 hPa | 0 mm | - | - | - |
| 1778004444 | 21.67° C | 70% | 1015.3 hPa | 0 mm | - | - | - |
| 1778003843 | 21.11° C | 70% | 1015.3 hPa | 0 mm | - | - | - |
| 1778003242 | 21.11° C | 70% | 1015.3 hPa | 0 mm | - | - | - |
| 1778002642 | 20.56° C | 70% | 1015.4 hPa | 0 mm | - | - | - |
| 1778001439 | 20.56° C | 70% | 1015.4 hPa | 0 mm | - | - | - |
| 1778000838 | 20.56° C | 70% | 1015.2 hPa | 0 mm | - | - | - |
| 1777999636 | 20.56° C | 70% | 1015.2 hPa | 0 mm | - | - | - |
| 1777999035 | 21.11° C | 70% | 1015.4 hPa | 0 mm | - | - | - |
| 1777998434 | 21.11° C | 70% | 1015.6 hPa | 0 mm | - | - | - |
| 1777997833 | 21.11° C | 70% | 1015.8 hPa | 0 mm | - | - | - |
| 1777997232 | 21.11° C | 70% | 1015.9 hPa | 0 mm | - | - | - |
| 1777996631 | 21.67° C | 70% | 1016 hPa | 0 mm | - | - | - |
| 1777996030 | 21.67° C | 70% | 1015.8 hPa | 0 mm | - | - | - |
| 1777995429 | 21.67° C | 70% | 1015.9 hPa | 0 mm | - | - | - |
| 1777994827 | 21.67° C | 70% | 1016.1 hPa | 0 mm | - | - | - |
| 1777994227 | 21.67° C | 70% | 1016.1 hPa | 0 mm | - | - | - |
| 1777993625 | 21.67° C | 70% | 1016.2 hPa | 0 mm | - | - | - |
| 1777993024 | 21.67° C | 70% | 1016.3 hPa | 0 mm | - | - | - |
| 1777992423 | 21.67° C | 70% | 1016.7 hPa | 0 mm | - | - | - |
| 1777991822 | 21.67° C | 70% | 1016.3 hPa | 0 mm | - | - | - |
| 1777991221 | 21.67° C | 70% | 1016.2 hPa | 0 mm | - | - | - |
| 1777990620 | 21.67° C | 70% | 1016.3 hPa | 0 mm | - | - | - |
| 1777990019 | 21.67° C | 70% | 1016.2 hPa | 0 mm | - | - | - |
| 1777989418 | 22.22° C | 70% | 1016.3 hPa | 0 mm | - | - | - |
* Rain since midnight (hover to see other rain measurements)
** Current wind speed in m/s (hover to see current wind gust speed)